Regional Weather Roundup
Issued by NWS

Home | Current Version | Previous Version | Text Only | Print | Product List | Glossary Off
Versions: 1 2 3 4 5 6 7 8 9 10 11 12 13 14 15 16 17 18 19 20 21 22 23 24 25 26 27 28 29 30 31 32 33 34 35 36 37 38 39 40 41 42 43 44 45 46 47 48 49 50

000
ASUS43 KFSD 200502
RWRSD

WEATHER ROUNDUP FOR SOUTH DAKOTA
NATIONAL WEATHER SERVICE SIOUX FALLS SD
1200 AM CDT WED AUG 20 2014

NOTE: "FAIR" INDICATES FEW OR NO CLOUDS BELOW 12,000 FEET WITH NO
SIGNIFICANT WEATHER AND/OR OBSTRUCTIONS TO VISIBILITY.


SDZ001>005-009-010-012>017-200600-
NORTHWEST AND NORTH CENTRAL SOUTH DAKOTA

CITY           SKY/WX    TMP DP  RH WIND       PRES   REMARKS
BUFFALO          N/A     74  57  55 SE20      29.66F
FAITH            N/A     73  60  63 SE16      29.74S
MOBRIDGE       PTCLDY    71  63  75 SE12      29.72S
$$

SDZ012>016-024>037-041>051-057-063-072>074-200600-
SOUTHWEST AND SOUTH CENTRAL SOUTH DAKOTA

CITY           SKY/WX    TMP DP  RH WIND       PRES   REMARKS
RAPID CTY ARPT PTCLDY    66  60  81 SW3       29.75S
PIERRE         LGT RAIN  73  64  73 SE10      29.73S
CUSTER         MOCLDY    67  56  67 CALM      29.90F
ELLSWORTH AFB  MOCLDY    72  59  64 E3        29.75S
PHILIP         PTCLDY    74  61  63 E9        29.71F
PINE RIDGE     PTCLDY    68  57  68 E13       29.77F
WINNER         FAIR      74  65  73 SE14      29.77F
$$

SDZ004>011-016>023-039-040-200600-
NORTHEAST SOUTH DAKOTA

CITY           SKY/WX    TMP DP  RH WIND       PRES   REMARKS
ABERDEEN       PTCLDY    65  62  90 SE8       29.77S
WATERTOWN      PTCLDY    66  62  87 CALM      29.81S
SISSETON         N/A     65  64  97 S5        29.78S
$$

SDZ017-020-022-023-036>040-048>070-200600-
SOUTHEAST SOUTH DAKOTA

CITY           SKY/WX    TMP DP  RH WIND       PRES   REMARKS
SIOUX FALLS    MOCLDY    71  63  75 CALM      29.81F
HURON          PTCLDY    68  63  84 SE7       29.77S
CHAMBERLAIN    PTCLDY    69  64  85 E7        29.76F
MITCHELL       PTCLDY    69  64  84 S6        29.79R
YANKTON        MOCLDY    70  64  83 E6        29.80R
$$

ABBREVIATIONS USED IN REMARKS
   TC - TEMPERATURE IN CELSIUS
  WCI - WIND CHILL INDEX
   HX - HEAT INDEX
  VSB - VISIBILITY



USA.gov is the U.S. government's official web portal to all federal, state and local government web resources and services.